TimeMST,TemperatureF,Dew PointF,Humidity,Sea Level PressureIn,VisibilityMPH,Wind Direction,Wind SpeedMPH,Gust SpeedMPH,PrecipitationIn,Events,Conditions,WindDirDegrees,DateUTC
12:53 AM,5.0,1.0,84,30.56,10.0,SSE,9.2,-,N/A,,Clear,150,2013-01-17 07:53:00
1:53 AM,7.0,1.9,80,30.55,10.0,SE,5.8,-,N/A,,Clear,140,2013-01-17 08:53:00
2:53 AM,3.9,-0.0,84,30.58,10.0,SE,8.1,-,N/A,,Clear,140,2013-01-17 09:53:00
3:53 AM,8.1,3.9,83,30.56,10.0,SSE,8.1,-,N/A,,Clear,150,2013-01-17 10:53:00
5:53 AM,9.0,3.0,77,30.59,10.0,South,5.8,-,N/A,,Clear,190,2013-01-17 12:53:00
6:53 AM,3.0,-0.0,87,30.64,10.0,SE,3.5,-,N/A,,Clear,130,2013-01-17 13:53:00
7:53 AM,5.0,1.0,84,30.66,10.0,SE,3.5,-,N/A,,Clear,140,2013-01-17 14:53:00
8:53 AM,1.9,-0.9,88,30.70,10.0,West,3.5,-,N/A,,Clear,270,2013-01-17 15:53:00
9:53 AM,7.0,3.0,84,30.70,10.0,Calm,Calm,-,N/A,,Clear,0,2013-01-17 16:53:00
10:53 AM,17.1,9.0,71,30.61,10.0,SE,3.5,-,N/A,,Unknown,140,2013-01-17 17:53:00
11:53 AM,19.0,10.0,68,30.56,10.0,Calm,Calm,-,N/A,,Clear,0,2013-01-17 18:53:00
12:53 PM,19.9,12.9,74,30.55,10.0,WNW,3.5,-,N/A,,Clear,300,2013-01-17 19:53:00
1:53 PM,21.9,12.9,68,30.51,10.0,North,6.9,-,N/A,,Clear,350,2013-01-17 20:53:00
2:53 PM,26.1,12.0,55,30.50,10.0,NE,5.8,-,N/A,,Clear,40,2013-01-17 21:53:00
3:53 PM,24.1,12.9,62,30.49,10.0,North,6.9,-,N/A,,Clear,10,2013-01-17 22:53:00
4:53 PM,23.0,12.0,63,30.50,10.0,NNE,5.8,-,N/A,,Clear,20,2013-01-17 23:53:00
5:53 PM,19.0,12.0,74,30.50,10.0,Calm,Calm,-,N/A,,Clear,0,2013-01-18 00:53:00
6:53 PM,10.9,6.1,81,30.58,10.0,West,3.5,-,N/A,,Clear,270,2013-01-18 01:53:00
7:53 PM,16.0,10.0,77,30.51,10.0,South,3.5,-,N/A,,Clear,190,2013-01-18 02:53:00
8:53 PM,10.0,3.9,76,30.56,10.0,ESE,5.8,-,N/A,,Clear,120,2013-01-18 03:53:00
9:53 PM,17.1,6.1,62,30.47,10.0,SW,11.5,-,N/A,,Clear,230,2013-01-18 04:53:00
10:53 PM,21.9,6.1,51,30.37,10.0,WSW,15.0,25.3,N/A,,Clear,250,2013-01-18 05:53:00
11:53 PM,24.1,6.1,46,30.34,10.0,West,15.0,20.7,N/A,,Clear,270,2013-01-18 06:53:00